Year,Month,Day,Hour,Minute,Value (Times are PST for temperature in C)
2015,06,28,00,00,19.80
2015,06,28,00,01,19.80
2015,06,28,00,02,19.80
2015,06,28,00,03,19.70
2015,06,28,00,04,19.70
2015,06,28,00,05,19.70
2015,06,28,00,06,19.70
2015,06,28,00,07,19.70
2015,06,28,00,08,19.70
2015,06,28,00,09,19.70
2015,06,28,00,10,19.60
2015,06,28,00,11,19.60
2015,06,28,00,12,19.60
2015,06,28,00,13,19.60
2015,06,28,00,14,19.60
2015,06,28,00,15,19.60
2015,06,28,00,16,19.60
2015,06,28,00,17,19.50
2015,06,28,00,18,19.50
2015,06,28,00,19,19.50
2015,06,28,00,20,19.50
2015,06,28,00,21,19.50
2015,06,28,00,22,19.50
2015,06,28,00,23,19.60
2015,06,28,00,24,19.60
2015,06,28,00,25,19.60
2015,06,28,00,26,19.60
2015,06,28,00,27,19.60
2015,06,28,00,28,19.60
2015,06,28,00,29,19.60
2015,06,28,00,30,19.70
2015,06,28,00,31,19.70
2015,06,28,00,32,19.70
2015,06,28,00,33,19.70
2015,06,28,00,34,19.70
2015,06,28,00,35,19.70
2015,06,28,00,36,19.70
2015,06,28,00,37,19.70
2015,06,28,00,38,19.70
2015,06,28,00,39,19.70
2015,06,28,00,40,19.70
2015,06,28,00,41,19.70
2015,06,28,00,42,19.70
2015,06,28,00,43,19.70
2015,06,28,00,44,19.70
2015,06,28,00,45,19.70
2015,06,28,00,46,19.70
2015,06,28,00,47,19.70
2015,06,28,00,48,19.70
2015,06,28,00,49,19.70
2015,06,28,00,50,19.70
2015,06,28,00,51,19.80
2015,06,28,00,52,19.80
2015,06,28,00,53,19.70
2015,06,28,00,54,19.70
2015,06,28,00,55,19.70
2015,06,28,00,56,19.70
2015,06,28,00,57,19.80
2015,06,28,00,58,19.80
2015,06,28,00,59,19.80
2015,06,28,01,00,19.70
2015,06,28,01,01,19.80
2015,06,28,01,02,19.70
2015,06,28,01,03,19.70
2015,06,28,01,04,19.70
2015,06,28,01,05,19.70
2015,06,28,01,06,19.80
2015,06,28,01,07,19.80
2015,06,28,01,08,19.80
2015,06,28,01,09,19.80
2015,06,28,01,10,19.80
2015,06,28,01,11,19.90
2015,06,28,01,12,19.90
2015,06,28,01,13,19.90
2015,06,28,01,14,20.00
2015,06,28,01,15,20.00
2015,06,28,01,16,20.00
2015,06,28,01,17,20.00
2015,06,28,01,18,20.10
2015,06,28,01,19,20.10
2015,06,28,01,20,20.10
2015,06,28,01,21,20.10
2015,06,28,01,22,20.10
2015,06,28,01,23,20.20
2015,06,28,01,24,20.20
2015,06,28,01,25,20.10
2015,06,28,01,26,20.10
2015,06,28,01,27,20.10
2015,06,28,01,28,20.10
2015,06,28,01,29,20.10
2015,06,28,01,30,20.10
2015,06,28,01,31,20.10
2015,06,28,01,32,20.10
2015,06,28,01,33,20.00
2015,06,28,01,34,20.00
2015,06,28,01,35,20.00
2015,06,28,01,36,20.10
2015,06,28,01,37,20.10
2015,06,28,01,38,20.10
2015,06,28,01,39,20.10
2015,06,28,01,40,20.20
2015,06,28,01,41,20.20
2015,06,28,01,42,20.20
2015,06,28,01,43,20.20
2015,06,28,01,44,20.30
2015,06,28,01,45,20.30
2015,06,28,01,46,20.30
2015,06,28,01,47,20.30
2015,06,28,01,48,20.40
2015,06,28,01,49,20.30
2015,06,28,01,50,20.30
2015,06,28,01,51,20.20
2015,06,28,01,52,20.10
2015,06,28,01,53,20.00
2015,06,28,01,54,20.00
2015,06,28,01,55,19.90
2015,06,28,01,56,19.90
2015,06,28,01,57,19.80
2015,06,28,01,58,19.80
2015,06,28,01,59,19.80
2015,06,28,02,00,19.70
2015,06,28,02,01,19.70
2015,06,28,02,02,19.70
2015,06,28,02,03,19.70
2015,06,28,02,04,19.60
2015,06,28,02,05,19.60
2015,06,28,02,06,19.60
2015,06,28,02,07,19.60
2015,06,28,02,08,19.60
2015,06,28,02,09,19.50
2015,06,28,02,10,19.50
2015,06,28,02,11,19.50
2015,06,28,02,12,19.50
2015,06,28,02,13,19.50
2015,06,28,02,14,19.50
2015,06,28,02,15,19.40
2015,06,28,02,16,19.40
2015,06,28,02,17,19.40
2015,06,28,02,18,19.40
2015,06,28,02,19,19.30
2015,06,28,02,20,19.30
2015,06,28,02,21,19.20
2015,06,28,02,22,19.20
2015,06,28,02,23,19.20
2015,06,28,02,24,19.10
2015,06,28,02,25,19.10
2015,06,28,02,26,19.00
2015,06,28,02,27,19.00
2015,06,28,02,28,18.90
2015,06,28,02,29,18.90
2015,06,28,02,30,18.90
2015,06,28,02,31,18.80
2015,06,28,02,32,18.80
2015,06,28,02,33,18.80
2015,06,28,02,34,18.80
2015,06,28,02,35,18.70
2015,06,28,02,36,18.70
2015,06,28,02,37,18.70
2015,06,28,02,38,18.70
2015,06,28,02,39,18.80
2015,06,28,02,40,18.80
2015,06,28,02,41,18.80
2015,06,28,02,42,18.80
2015,06,28,02,43,18.80
2015,06,28,02,44,18.80
2015,06,28,02,45,18.90
2015,06,28,02,46,18.90
2015,06,28,02,47,18.90
2015,06,28,02,48,18.90
2015,06,28,02,49,19.00
2015,06,28,02,50,19.00
2015,06,28,02,51,19.10
2015,06,28,02,52,19.10
2015,06,28,02,53,19.10
2015,06,28,02,54,19.20
2015,06,28,02,55,19.20
2015,06,28,02,56,19.20
2015,06,28,02,57,19.20
2015,06,28,02,58,19.20
2015,06,28,02,59,19.20
2015,06,28,03,00,19.30
2015,06,28,03,01,19.30
2015,06,28,03,02,19.30
2015,06,28,03,03,19.30
2015,06,28,03,06,19.40
2015,06,28,03,07,19.50
2015,06,28,03,08,19.50
2015,06,28,03,09,19.60
2015,06,28,03,10,19.60
2015,06,28,03,11,19.70
2015,06,28,03,12,19.80
2015,06,28,03,13,19.80
2015,06,28,03,14,19.90
2015,06,28,03,15,20.00
2015,06,28,03,16,20.10
2015,06,28,03,17,20.10
2015,06,28,03,18,20.20
2015,06,28,03,19,20.20
2015,06,28,03,20,20.30
2015,06,28,03,21,20.30
2015,06,28,03,22,20.30
2015,06,28,03,23,20.30
2015,06,28,03,24,20.40
2015,06,28,03,25,20.40
2015,06,28,03,26,20.50
2015,06,28,03,27,20.50
2015,06,28,03,28,20.60
2015,06,28,03,29,20.60
2015,06,28,03,30,20.70
2015,06,28,03,31,20.70
2015,06,28,03,32,20.70
2015,06,28,03,33,20.70
2015,06,28,03,34,20.80
2015,06,28,03,35,20.80
2015,06,28,03,36,20.80
2015,06,28,03,37,20.80
2015,06,28,03,38,20.80
2015,06,28,03,39,20.80
2015,06,28,03,40,20.80
2015,06,28,03,41,20.80
2015,06,28,03,42,20.80
2015,06,28,03,43,20.80
2015,06,28,03,44,20.90
2015,06,28,03,45,20.90
2015,06,28,03,46,20.90
2015,06,28,03,47,20.90
2015,06,28,03,48,21.00
2015,06,28,03,49,21.00
2015,06,28,03,50,21.10
2015,06,28,03,51,21.20
2015,06,28,03,52,21.30
2015,06,28,03,53,21.30
2015,06,28,03,54,21.40
2015,06,28,03,55,21.60
2015,06,28,03,56,21.60
2015,06,28,03,57,21.70
2015,06,28,03,58,21.70
2015,06,28,03,59,21.70
2015,06,28,04,00,21.70
2015,06,28,04,01,21.70
2015,06,28,04,02,21.60
2015,06,28,04,03,21.60
2015,06,28,04,04,21.60
2015,06,28,04,05,21.70
2015,06,28,04,06,21.80
2015,06,28,04,07,21.80
2015,06,28,04,08,21.90
2015,06,28,04,09,21.90
2015,06,28,04,10,21.90
2015,06,28,04,11,21.90
2015,06,28,04,12,22.00
2015,06,28,04,13,22.00
2015,06,28,04,14,22.00
2015,06,28,04,15,22.00
2015,06,28,04,16,22.00
2015,06,28,04,17,22.00
2015,06,28,04,18,21.90
2015,06,28,04,19,21.90
2015,06,28,04,20,21.90
2015,06,28,04,21,21.80
2015,06,28,04,22,21.80
2015,06,28,04,23,21.70
2015,06,28,04,24,21.60
2015,06,28,04,25,21.50
2015,06,28,04,26,21.40
2015,06,28,04,27,21.40
2015,06,28,04,28,21.30
2015,06,28,04,29,21.30
2015,06,28,04,30,21.20
2015,06,28,04,31,21.20
2015,06,28,04,32,21.10
2015,06,28,04,33,21.10
2015,06,28,04,34,21.10
2015,06,28,04,35,21.00
2015,06,28,04,36,21.00
2015,06,28,04,37,20.90
2015,06,28,04,38,20.90
2015,06,28,04,39,20.80
2015,06,28,04,40,20.80
2015,06,28,04,41,20.80
2015,06,28,04,42,20.70
2015,06,28,04,43,20.70
2015,06,28,04,44,20.70
2015,06,28,04,45,20.70
2015,06,28,04,46,20.70
2015,06,28,04,47,20.70
2015,06,28,04,48,20.70
2015,06,28,04,49,20.60
2015,06,28,04,50,20.60
2015,06,28,04,51,20.60
2015,06,28,04,52,20.60
2015,06,28,04,53,20.50
2015,06,28,04,54,20.50
2015,06,28,04,55,20.50
2015,06,28,04,56,20.40
2015,06,28,04,57,20.40
2015,06,28,04,58,20.40
2015,06,28,04,59,20.40
2015,06,28,05,00,20.30
2015,06,28,05,01,20.30
2015,06,28,05,02,20.30
2015,06,28,05,03,20.20
2015,06,28,05,04,20.20
2015,06,28,05,05,20.20
2015,06,28,05,06,20.10
2015,06,28,05,07,20.10
2015,06,28,05,08,20.10
2015,06,28,05,09,20.00
2015,06,28,05,10,20.00
2015,06,28,05,11,20.00
2015,06,28,05,12,20.00
2015,06,28,05,13,20.00
2015,06,28,05,14,19.90
2015,06,28,05,15,19.90
2015,06,28,05,16,19.90
2015,06,28,05,17,19.90
2015,06,28,05,18,19.80
2015,06,28,05,19,19.80
2015,06,28,05,20,19.80
2015,06,28,05,21,19.80
2015,06,28,05,22,19.80
2015,06,28,05,23,19.80
2015,06,28,05,24,19.90
2015,06,28,05,25,19.90
2015,06,28,05,26,19.90
2015,06,28,05,27,19.90
2015,06,28,05,28,19.90
2015,06,28,05,29,19.90
2015,06,28,05,30,20.00
2015,06,28,05,31,20.00
2015,06,28,05,32,20.00
2015,06,28,05,33,20.10
2015,06,28,05,34,20.10
2015,06,28,05,35,20.10
2015,06,28,05,36,20.10
2015,06,28,05,37,20.10
2015,06,28,05,38,20.10
2015,06,28,05,39,20.10
2015,06,28,05,40,20.10
2015,06,28,05,41,20.10
2015,06,28,05,42,20.10
2015,06,28,05,43,20.20
2015,06,28,05,44,20.20
2015,06,28,05,45,20.20
2015,06,28,05,46,20.20
2015,06,28,05,47,20.20
2015,06,28,05,48,20.20
2015,06,28,05,49,20.20
2015,06,28,05,50,20.20
2015,06,28,05,51,20.20
2015,06,28,05,52,20.20
2015,06,28,05,53,20.20
2015,06,28,05,54,20.20
2015,06,28,05,55,20.30
2015,06,28,05,56,20.30
2015,06,28,05,57,20.30
2015,06,28,05,58,20.30
2015,06,28,05,59,20.30
2015,06,28,06,00,20.30
2015,06,28,06,01,20.30
2015,06,28,06,02,20.30
2015,06,28,06,03,20.40
2015,06,28,06,04,20.40
2015,06,28,06,05,20.40
2015,06,28,06,06,20.40
2015,06,28,06,07,20.50
2015,06,28,06,08,20.50
2015,06,28,06,09,20.50
2015,06,28,06,10,20.50
2015,06,28,06,11,20.60
2015,06,28,06,12,20.60
2015,06,28,06,13,20.60
2015,06,28,06,14,20.60
2015,06,28,06,15,20.60
2015,06,28,06,16,20.60
2015,06,28,06,17,20.70
2015,06,28,06,18,20.70
2015,06,28,06,19,20.70
2015,06,28,06,20,20.80
2015,06,28,06,21,20.80
2015,06,28,06,22,20.80
2015,06,28,06,23,20.80
2015,06,28,06,24,20.80
2015,06,28,06,25,20.80
2015,06,28,06,26,20.90
2015,06,28,06,27,20.90
2015,06,28,06,28,20.90
2015,06,28,06,29,21.00
2015,06,28,06,30,21.00
2015,06,28,06,31,21.10
2015,06,28,06,32,21.10
2015,06,28,06,33,21.10
2015,06,28,06,34,21.20
2015,06,28,06,35,21.30
2015,06,28,06,36,21.30
2015,06,28,06,37,21.40
2015,06,28,06,38,21.40
2015,06,28,06,39,21.50
2015,06,28,06,40,21.60
2015,06,28,06,41,21.60
2015,06,28,06,42,21.60
2015,06,28,06,43,21.70
2015,06,28,06,44,21.80
2015,06,28,06,45,21.80
2015,06,28,06,46,21.90
2015,06,28,06,47,22.00
2015,06,28,06,48,22.10
2015,06,28,06,49,22.20
2015,06,28,06,50,22.30
2015,06,28,06,51,22.50
2015,06,28,06,52,22.60
2015,06,28,06,53,22.70
2015,06,28,06,54,22.70
2015,06,28,06,55,22.80
2015,06,28,06,56,22.80
2015,06,28,06,57,22.90
2015,06,28,06,58,23.00
2015,06,28,06,59,23.10
2015,06,28,07,00,23.20
2015,06,28,07,01,23.20
2015,06,28,07,02,23.30
2015,06,28,07,03,23.40
2015,06,28,07,04,23.40
2015,06,28,07,05,23.50
2015,06,28,07,06,23.60
2015,06,28,07,07,23.60
2015,06,28,07,08,23.70
2015,06,28,07,09,23.80
2015,06,28,07,10,23.80
2015,06,28,07,11,23.90
2015,06,28,07,12,24.00
2015,06,28,07,13,24.10
2015,06,28,07,14,24.10
2015,06,28,07,15,24.20
2015,06,28,07,16,24.20
2015,06,28,07,17,24.20
2015,06,28,07,18,24.30
2015,06,28,07,19,24.30
2015,06,28,07,20,24.30
2015,06,28,07,21,24.20
2015,06,28,07,22,24.30
2015,06,28,07,23,24.30
2015,06,28,07,24,24.30
2015,06,28,07,25,24.40
2015,06,28,07,26,24.40
2015,06,28,07,27,24.50
2015,06,28,07,28,24.60
2015,06,28,07,29,24.60
2015,06,28,07,30,24.70
2015,06,28,07,31,24.80
2015,06,28,07,32,24.90
2015,06,28,07,33,25.00
2015,06,28,07,34,25.10
2015,06,28,07,35,25.10
2015,06,28,07,36,25.20
2015,06,28,07,37,25.30
2015,06,28,07,38,25.30
2015,06,28,07,39,25.30
2015,06,28,07,40,25.40
2015,06,28,07,41,25.40
2015,06,28,07,42,25.40
2015,06,28,07,43,25.40
2015,06,28,07,44,25.40
2015,06,28,07,45,25.30
2015,06,28,07,46,25.30
2015,06,28,07,47,25.30
2015,06,28,07,48,25.40
2015,06,28,07,49,25.40
2015,06,28,07,50,25.40
2015,06,28,07,51,25.40
2015,06,28,07,52,25.50
2015,06,28,07,53,25.50
2015,06,28,07,54,25.60
2015,06,28,07,55,25.60
2015,06,28,07,56,25.70
2015,06,28,07,57,25.70
2015,06,28,07,58,25.80
2015,06,28,07,59,25.80
2015,06,28,08,00,25.90
2015,06,28,08,01,25.90
2015,06,28,08,02,25.90
2015,06,28,08,03,26.00
2015,06,28,08,04,26.10
2015,06,28,08,05,26.10
2015,06,28,08,06,26.10
2015,06,28,08,07,26.10
2015,06,28,08,08,26.10
2015,06,28,08,09,26.10
2015,06,28,08,10,26.10
2015,06,28,08,11,26.20
2015,06,28,08,12,26.20
2015,06,28,08,13,26.20
2015,06,28,08,14,26.20
2015,06,28,08,15,26.30
2015,06,28,08,16,26.30
2015,06,28,08,17,26.30
2015,06,28,08,18,26.30
2015,06,28,08,19,26.30
2015,06,28,08,20,26.30
2015,06,28,08,21,26.30
2015,06,28,08,22,26.30
2015,06,28,08,23,26.30
2015,06,28,08,24,26.30
2015,06,28,08,25,26.40
2015,06,28,08,26,26.40
2015,06,28,08,27,26.50
2015,06,28,08,28,26.60
2015,06,28,08,29,26.60
2015,06,28,08,30,26.60
2015,06,28,08,31,26.70
2015,06,28,08,32,26.70
2015,06,28,08,33,26.70
2015,06,28,08,34,26.70
2015,06,28,08,35,26.70
2015,06,28,08,36,26.70
2015,06,28,08,37,26.80
2015,06,28,08,38,26.80
2015,06,28,08,39,26.90
2015,06,28,08,40,26.90
2015,06,28,08,41,27.00
2015,06,28,08,42,27.10
2015,06,28,08,43,27.10
2015,06,28,08,44,27.20
2015,06,28,08,45,27.30
2015,06,28,08,46,27.30
2015,06,28,08,47,27.40
2015,06,28,08,48,27.50
2015,06,28,08,49,27.60
2015,06,28,08,50,27.60
2015,06,28,08,51,27.60
2015,06,28,08,52,27.60
2015,06,28,08,53,27.70
2015,06,28,08,54,27.70
2015,06,28,08,55,27.80
2015,06,28,08,56,27.80
2015,06,28,08,57,27.80
2015,06,28,08,58,27.80
2015,06,28,08,59,27.80
2015,06,28,09,00,27.80
2015,06,28,09,01,27.80
2015,06,28,09,02,27.80
2015,06,28,09,03,27.80
2015,06,28,09,04,27.80
2015,06,28,09,05,27.90
2015,06,28,09,06,27.90
2015,06,28,09,07,27.90
2015,06,28,09,08,27.90
2015,06,28,09,09,28.00
2015,06,28,09,10,28.00
2015,06,28,09,11,28.10
2015,06,28,09,12,28.10
2015,06,28,09,13,28.20
2015,06,28,09,14,28.20
2015,06,28,09,15,28.30
2015,06,28,09,16,28.40
2015,06,28,09,17,28.40
2015,06,28,09,18,28.50
2015,06,28,09,19,28.60
2015,06,28,09,20,28.70
2015,06,28,09,21,28.70
2015,06,28,09,22,28.80
2015,06,28,09,23,28.80
2015,06,28,09,24,28.70
2015,06,28,09,25,28.70
2015,06,28,09,26,28.60
2015,06,28,09,27,28.50
2015,06,28,09,28,28.50
2015,06,28,09,29,28.50
2015,06,28,09,30,28.50
2015,06,28,09,31,28.50
2015,06,28,09,32,28.50
2015,06,28,09,33,28.50
2015,06,28,09,34,28.60
2015,06,28,09,35,28.60
2015,06,28,09,36,28.50
2015,06,28,09,37,28.50
2015,06,28,09,38,28.50
2015,06,28,09,39,28.50
2015,06,28,09,40,28.50
2015,06,28,09,41,28.50
2015,06,28,09,42,28.50
2015,06,28,09,43,28.50
2015,06,28,09,44,28.50
2015,06,28,09,45,28.50
2015,06,28,09,46,28.50
2015,06,28,09,47,28.50
2015,06,28,09,48,28.50
2015,06,28,09,49,28.50
2015,06,28,09,50,28.60
2015,06,28,09,51,28.60
2015,06,28,09,52,28.70
2015,06,28,09,53,28.70
2015,06,28,09,54,28.70
2015,06,28,09,55,28.70
2015,06,28,09,56,28.70
2015,06,28,09,57,28.60
2015,06,28,09,58,28.50
2015,06,28,09,59,28.40
2015,06,28,10,00,28.40
2015,06,28,10,01,28.40
2015,06,28,10,02,28.40
2015,06,28,10,03,28.40
2015,06,28,10,04,28.40
2015,06,28,10,05,28.40
2015,06,28,10,06,28.30
2015,06,28,10,07,28.30
2015,06,28,10,08,28.30
2015,06,28,10,09,28.30
2015,06,28,10,10,28.40
2015,06,28,10,11,28.40
2015,06,28,10,12,28.40
2015,06,28,10,13,28.40
2015,06,28,10,14,28.50
2015,06,28,10,15,28.50
2015,06,28,10,16,28.40
2015,06,28,10,17,28.40
2015,06,28,10,18,28.40
2015,06,28,10,19,28.40
2015,06,28,10,20,28.40
2015,06,28,10,21,28.30
2015,06,28,10,22,28.30
2015,06,28,10,23,28.30
2015,06,28,10,24,28.30
2015,06,28,10,25,28.30
2015,06,28,10,26,28.40
2015,06,28,10,27,28.40
2015,06,28,10,28,28.50
2015,06,28,10,29,28.50
2015,06,28,10,30,28.60
2015,06,28,10,31,28.70
2015,06,28,10,32,28.70
2015,06,28,10,33,28.70
2015,06,28,10,34,28.80
2015,06,28,10,35,28.80
2015,06,28,10,36,28.80
2015,06,28,10,37,28.80
2015,06,28,10,38,28.90
2015,06,28,10,39,28.90
2015,06,28,10,40,28.90
2015,06,28,10,41,28.90
2015,06,28,10,42,29.00
2015,06,28,10,43,29.00
2015,06,28,10,44,29.10
2015,06,28,10,45,29.10
2015,06,28,10,46,29.10
2015,06,28,10,47,29.20
2015,06,28,10,48,29.20
2015,06,28,10,49,29.20
2015,06,28,10,50,29.20
2015,06,28,10,51,29.30
2015,06,28,10,52,29.40
2015,06,28,10,53,29.50
2015,06,28,10,54,29.60
2015,06,28,10,55,29.80
2015,06,28,10,56,29.90
2015,06,28,10,57,29.90
2015,06,28,10,58,29.90
2015,06,28,10,59,30.00
2015,06,28,11,00,30.00
2015,06,28,11,01,30.10
2015,06,28,11,02,30.20
2015,06,28,11,03,30.20
2015,06,28,11,04,30.30
2015,06,28,11,05,30.40
2015,06,28,11,06,30.40
2015,06,28,11,07,30.50
2015,06,28,11,08,30.60
2015,06,28,11,09,30.60
2015,06,28,11,10,30.60
2015,06,28,11,11,30.60
2015,06,28,11,12,30.60
2015,06,28,11,13,30.60
2015,06,28,11,14,30.50
2015,06,28,11,15,30.40
2015,06,28,11,16,30.30
2015,06,28,11,17,30.30
2015,06,28,11,18,30.30
2015,06,28,11,19,30.20
2015,06,28,11,20,30.20
2015,06,28,11,21,30.10
2015,06,28,11,22,30.10
2015,06,28,11,23,30.10
2015,06,28,11,24,30.10
2015,06,28,11,25,30.20
2015,06,28,11,26,30.20
2015,06,28,11,27,30.30
2015,06,28,11,28,30.30
2015,06,28,11,29,30.30
2015,06,28,11,30,30.30
2015,06,28,11,31,30.30
2015,06,28,11,32,30.30
2015,06,28,11,33,30.30
2015,06,28,11,34,30.30
2015,06,28,11,35,30.30
2015,06,28,11,36,30.30
2015,06,28,11,37,30.30
2015,06,28,11,38,30.30
2015,06,28,11,39,30.30
2015,06,28,11,40,30.30
2015,06,28,11,41,30.30
2015,06,28,11,42,30.30
2015,06,28,11,43,30.30
2015,06,28,11,44,30.40
2015,06,28,11,45,30.40
2015,06,28,11,46,30.40
2015,06,28,11,47,30.40
2015,06,28,11,48,30.40
2015,06,28,11,49,30.50
2015,06,28,11,50,30.40
2015,06,28,11,51,30.40
2015,06,28,11,52,30.30
2015,06,28,11,53,30.20
2015,06,28,11,54,30.10
2015,06,28,11,55,29.90
2015,06,28,11,56,29.80
2015,06,28,11,57,29.60
2015,06,28,11,58,29.50
2015,06,28,11,59,29.40
2015,06,28,12,00,29.20
2015,06,28,12,01,29.00
2015,06,28,12,02,28.90
2015,06,28,12,03,28.70
2015,06,28,12,04,28.50
2015,06,28,12,05,28.30
2015,06,28,12,06,28.20
2015,06,28,12,07,27.90
2015,06,28,12,08,27.70
2015,06,28,12,09,27.50
2015,06,28,12,10,27.30
2015,06,28,12,11,27.20
2015,06,28,12,12,27.10
2015,06,28,12,13,27.00
2015,06,28,12,14,26.90
2015,06,28,12,15,26.90
2015,06,28,12,16,26.80
2015,06,28,12,17,26.80
2015,06,28,12,18,26.70
2015,06,28,12,19,26.60
2015,06,28,12,20,26.60
2015,06,28,12,21,26.60
2015,06,28,12,22,26.60
2015,06,28,12,23,26.60
2015,06,28,12,24,26.60
2015,06,28,12,25,26.60
2015,06,28,12,26,26.70
2015,06,28,12,27,26.70
2015,06,28,12,28,26.70
2015,06,28,12,29,26.70
2015,06,28,12,30,26.60
2015,06,28,12,31,26.50
2015,06,28,12,32,26.20
2015,06,28,12,33,26.00
2015,06,28,12,34,25.80
2015,06,28,12,35,25.50
2015,06,28,12,36,25.10
2015,06,28,12,37,24.80
2015,06,28,12,38,24.60
2015,06,28,12,39,24.40
2015,06,28,12,40,24.10
2015,06,28,12,41,23.90
2015,06,28,12,42,23.70
2015,06,28,12,43,23.60
2015,06,28,12,44,23.40
2015,06,28,12,45,23.30
2015,06,28,12,46,23.20
2015,06,28,12,47,23.10
2015,06,28,12,48,23.10
2015,06,28,12,49,23.00
2015,06,28,12,50,22.90
2015,06,28,12,51,22.70
2015,06,28,12,52,22.60
2015,06,28,12,53,22.50
2015,06,28,12,54,22.40
2015,06,28,12,55,22.30
2015,06,28,12,56,22.30
2015,06,28,12,57,22.30
2015,06,28,12,58,22.20
2015,06,28,12,59,22.20
2015,06,28,13,00,22.20
2015,06,28,13,01,22.10
2015,06,28,13,02,22.10
2015,06,28,13,03,22.10
2015,06,28,13,04,22.10
2015,06,28,13,05,22.10
2015,06,28,13,06,22.20
2015,06,28,13,07,22.10
2015,06,28,13,08,22.10
2015,06,28,13,09,22.00
2015,06,28,13,10,22.00
2015,06,28,13,11,22.00
2015,06,28,13,12,22.00
2015,06,28,13,13,22.00
2015,06,28,13,14,22.10
2015,06,28,13,15,22.00
2015,06,28,13,16,22.00
2015,06,28,13,17,22.00
2015,06,28,13,18,22.00
2015,06,28,13,19,22.10
2015,06,28,13,20,22.10
2015,06,28,13,21,22.10
2015,06,28,13,22,22.20
2015,06,28,13,23,22.20
2015,06,28,13,24,22.30
2015,06,28,13,25,22.30
2015,06,28,13,26,22.30
2015,06,28,13,27,22.40
2015,06,28,13,28,22.40
2015,06,28,13,29,22.50
2015,06,28,13,30,22.50
2015,06,28,13,31,22.60
2015,06,28,13,32,22.60
2015,06,28,13,33,22.70
2015,06,28,13,34,22.70
2015,06,28,13,35,22.70
2015,06,28,13,36,22.80
2015,06,28,13,37,22.80
2015,06,28,13,38,22.90
2015,06,28,13,39,22.90
2015,06,28,13,40,23.00
2015,06,28,13,41,23.10
2015,06,28,13,42,23.20
2015,06,28,13,43,23.30
2015,06,28,13,44,23.40
2015,06,28,13,45,23.40
2015,06,28,13,46,23.40
2015,06,28,13,47,23.40
2015,06,28,13,48,23.40
2015,06,28,13,49,23.40
2015,06,28,13,50,23.40
2015,06,28,13,51,23.40
2015,06,28,13,52,23.30
2015,06,28,13,53,23.30
2015,06,28,13,54,23.30
2015,06,28,13,55,23.30
2015,06,28,13,56,23.30
2015,06,28,13,57,23.30
2015,06,28,13,58,23.30
2015,06,28,13,59,23.20
2015,06,28,14,00,23.20
2015,06,28,14,01,23.10
2015,06,28,14,02,23.10
2015,06,28,14,03,23.10
2015,06,28,14,04,23.10
2015,06,28,14,05,23.10
2015,06,28,14,06,23.00
2015,06,28,14,07,23.00
2015,06,28,14,08,23.00
2015,06,28,14,09,23.00
2015,06,28,14,10,23.00
2015,06,28,14,11,23.00
2015,06,28,14,12,23.00
2015,06,28,14,13,22.90
2015,06,28,14,14,22.90
2015,06,28,14,15,22.90
2015,06,28,14,16,22.80
2015,06,28,14,17,22.70
2015,06,28,14,18,22.70
2015,06,28,14,19,22.60
2015,06,28,14,20,22.60
2015,06,28,14,21,22.50
2015,06,28,14,22,22.50
2015,06,28,14,23,22.50
2015,06,28,14,24,22.40
2015,06,28,14,25,22.40
2015,06,28,14,26,22.40
2015,06,28,14,27,22.40
2015,06,28,14,28,22.40
2015,06,28,14,29,22.40
2015,06,28,14,30,22.40
2015,06,28,14,31,22.50
2015,06,28,14,32,22.50
2015,06,28,14,33,22.60
2015,06,28,14,34,22.60
2015,06,28,14,35,22.60
2015,06,28,14,36,22.60
2015,06,28,14,37,22.60
2015,06,28,14,38,22.60
2015,06,28,14,39,22.60
2015,06,28,14,40,22.60
2015,06,28,14,41,22.60
2015,06,28,14,42,22.60
2015,06,28,14,43,22.60
2015,06,28,14,44,22.60
2015,06,28,14,45,22.60
2015,06,28,14,46,22.50
2015,06,28,14,47,22.40
2015,06,28,14,48,22.40
2015,06,28,14,49,22.40
2015,06,28,14,50,22.30
2015,06,28,14,51,22.30
2015,06,28,14,52,22.40
2015,06,28,14,53,22.40
2015,06,28,14,54,22.40
2015,06,28,14,55,22.50
2015,06,28,14,56,22.60
2015,06,28,14,57,22.70
2015,06,28,14,58,22.70
2015,06,28,14,59,22.80
2015,06,28,15,00,22.90
2015,06,28,15,01,22.90
2015,06,28,15,02,22.90
2015,06,28,15,03,22.90
2015,06,28,15,04,22.90
2015,06,28,15,05,23.00
2015,06,28,15,06,23.00
2015,06,28,15,07,23.00
2015,06,28,15,08,22.90
2015,06,28,15,09,23.00
2015,06,28,15,10,23.00
2015,06,28,15,11,23.00
2015,06,28,15,12,23.00
2015,06,28,15,13,23.00
2015,06,28,15,14,23.00
2015,06,28,15,15,23.10
2015,06,28,15,16,23.10
2015,06,28,15,17,23.10
2015,06,28,15,18,23.10
2015,06,28,15,19,23.10
2015,06,28,15,20,23.10
2015,06,28,15,21,23.10
2015,06,28,15,22,23.20
2015,06,28,15,23,23.20
2015,06,28,15,24,23.20
2015,06,28,15,25,23.20
2015,06,28,15,26,23.20
2015,06,28,15,27,23.10
2015,06,28,15,28,23.20
2015,06,28,15,29,23.20
2015,06,28,15,30,23.20
2015,06,28,15,31,23.20
2015,06,28,15,32,23.20
2015,06,28,15,33,23.30
2015,06,28,15,34,23.30
2015,06,28,15,35,23.40
2015,06,28,15,36,23.50
2015,06,28,15,37,23.50
2015,06,28,15,38,23.60
2015,06,28,15,39,23.60
2015,06,28,15,40,23.70
2015,06,28,15,41,23.70
2015,06,28,15,42,23.70
2015,06,28,15,43,23.80
2015,06,28,15,44,23.80
2015,06,28,15,45,23.80
2015,06,28,15,46,23.80
2015,06,28,15,47,23.80
2015,06,28,15,48,23.80
2015,06,28,15,49,23.80
2015,06,28,15,50,23.80
2015,06,28,15,51,23.80
2015,06,28,15,52,23.70
2015,06,28,15,53,23.70
2015,06,28,15,54,23.70
2015,06,28,15,55,23.70
2015,06,28,15,56,23.70
2015,06,28,15,57,23.60
2015,06,28,15,58,23.60
2015,06,28,15,59,23.60
2015,06,28,16,00,23.50
2015,06,28,16,01,23.50
2015,06,28,16,02,23.40
2015,06,28,16,03,23.40
2015,06,28,16,04,23.40
2015,06,28,16,05,23.40
2015,06,28,16,06,23.40
2015,06,28,16,07,23.40
2015,06,28,16,08,23.40
2015,06,28,16,09,23.30
2015,06,28,16,10,23.30
2015,06,28,16,11,23.30
2015,06,28,16,12,23.20
2015,06,28,16,13,23.20
2015,06,28,16,14,23.20
2015,06,28,16,15,23.10
2015,06,28,16,16,23.00
2015,06,28,16,17,22.90
2015,06,28,16,18,22.90
2015,06,28,16,19,22.90
2015,06,28,16,20,22.80
2015,06,28,16,21,22.80
2015,06,28,16,22,22.80
2015,06,28,16,23,22.80
2015,06,28,16,24,22.90
2015,06,28,16,25,22.90
2015,06,28,16,26,22.90
2015,06,28,16,27,22.90
2015,06,28,16,28,22.90
2015,06,28,16,29,22.90
2015,06,28,16,30,22.90
2015,06,28,16,31,23.00
2015,06,28,16,32,23.00
2015,06,28,16,33,23.10
2015,06,28,16,34,23.10
2015,06,28,16,35,23.10
2015,06,28,16,36,23.20
2015,06,28,16,37,23.20
2015,06,28,16,38,23.30
2015,06,28,16,39,23.30
2015,06,28,16,40,23.30
2015,06,28,16,41,23.30
2015,06,28,16,42,23.30
2015,06,28,16,43,23.40
2015,06,28,16,44,23.40
2015,06,28,16,45,23.40
2015,06,28,16,46,23.40
2015,06,28,16,47,23.40
2015,06,28,16,48,23.40
2015,06,28,16,49,23.40
2015,06,28,16,50,23.40
2015,06,28,16,51,23.30
2015,06,28,16,52,23.30
2015,06,28,16,53,23.30
2015,06,28,16,54,23.30
2015,06,28,16,55,23.30
2015,06,28,16,56,23.30
2015,06,28,16,57,23.30
2015,06,28,16,58,23.30
2015,06,28,16,59,23.30
2015,06,28,17,00,23.20
2015,06,28,17,01,23.20
2015,06,28,17,02,23.10
2015,06,28,17,03,23.00
2015,06,28,17,04,23.00
2015,06,28,17,05,22.90
2015,06,28,17,06,22.80
2015,06,28,17,07,22.70
2015,06,28,17,08,22.70
2015,06,28,17,09,22.60
2015,06,28,17,10,22.50
2015,06,28,17,11,22.50
2015,06,28,17,12,22.40
2015,06,28,17,13,22.30
2015,06,28,17,14,22.30
2015,06,28,17,15,22.20
2015,06,28,17,16,22.10
2015,06,28,17,17,22.10
2015,06,28,17,18,22.00
2015,06,28,17,19,21.90
2015,06,28,17,20,21.90
2015,06,28,17,21,21.80